FW1436 Weather Reports


Display with metric or nautical units.
time (UTC)temp
F
wind
direction
speed
MPH
gust
MPH
rain 1hr
in
rain 24hr
in
rain mn
in
humidity
%
barometer
mb
20260504234548 54 297 0.0 2.0 0.00 0.00 0.00 62 1010.4
20260504233048 54 292 0.0 2.0 0.00 0.00 0.00 63 1010.4
20260504231548 54 290 0.0 4.0 0.00 0.00 0.00 64 1010.3
20260504230049 54 291 1.0 4.0 0.00 0.00 0.00 65 1010.3
20260504224544 54 254 0.0 2.0 0.00 0.00 0.00 67 1010.2
20260504223057 54 243 0.0 3.0 0.00 0.00 0.00 67 1010.3
20260504221555 54 274 0.0 5.0 0.00 0.00 0.00 67 1010.4
20260504220038 55 261 0.0 3.0 0.00 0.00 0.00 67 1010.5
20260504214536 55 279 0.0 4.0 0.00 0.00 0.00 66 1010.5
20260504213047 55 249 0.0 4.0 0.00 0.00 0.00 65 1010.6
20260504211539 56 272 1.0 5.0 0.00 0.00 0.00 62 1010.5
20260504210033 56 298 2.0 5.0 0.00 0.00 0.00 61 1010.3
20260504204531 57 293 1.0 5.0 0.00 0.00 0.00 60 1010.2
20260504203043 57 301 3.0 13.0 0.00 0.00 0.00 56 1010.1
20260504201529 57 304 2.0 11.0 0.00 0.00 0.00 61 1009.9
20260504200029 56 250 2.0 7.0 0.00 0.00 0.00 65 1009.9
20260504194534 56 293 2.0 8.0 0.00 0.00 0.00 66 1009.8
20260504193026 57 252 2.0 6.0 0.00 0.00 0.00 63 1009.5
20260504191535 57 307 1.0 5.0 0.00 0.00 0.00 62 1009.2
20260504190024 57 278 1.0 7.0 0.00 0.00 0.00 61 1009.2
20260504184524 58 266 1.0 7.0 0.00 0.00 0.00 60 1009.1
20260504183024 59 311 2.0 6.0 0.00 0.00 0.00 59 1009.2
20260504181524 58 276 3.0 11.0 0.00 0.00 0.00 61 1009.1
20260504180023 59 275 4.0 10.0 0.00 0.00 0.00 60 1009.0
20260504174522 59 315 5.0 10.0 0.00 0.00 0.00 59 1009.0
20260504173022 60 315 5.0 12.0 0.00 0.00 0.00 59 1008.9
20260504171529 61 328 5.0 9.0 0.00 0.00 0.00 59 1008.7
20260504081529 54 257 0.0 2.0 0.00 0.00 0.00 78 1009.9
20260504050016 47 271 0.0 0.0 0.00 0.00 0.00 88 1008.9
20260504044512 47 271 0.0 0.0 0.00 0.00 0.00 87 1008.8
20260504043010 48 271 0.0 0.0 0.00 0.00 0.00 86 1008.9
20260504041509 49 271 0.0 1.0 0.00 0.00 0.00 85 1008.8
20260504040022 49 269 0.0 0.0 0.00 0.00 0.00 85 1008.9
20260504034507 49 269 0.0 0.0 0.00 0.00 0.00 85 1008.9
20260504033006 49 269 0.0 0.0 0.00 0.00 0.00 85 1008.9
20260504031505 49 269 0.0 0.0 0.00 0.00 0.00 84 1009.0
20260504030003 50 270 0.0 2.0 0.00 0.00 0.00 84 1008.9
20260504024502 50 272 0.0 1.0 0.00 0.00 0.00 84 1009.0
20260504023104 50 287 0.0 2.0 0.00 0.00 0.00 83 1009.0
20260504021558 50 281 0.0 0.0 0.00 0.00 0.00 82 1009.1
20260504020101 51 278 0.0 1.0 0.00 0.00 0.00 81 1009.0
20260504014604 51 276 0.0 1.0 0.00 0.00 0.00 80 1009.0
20260504013058 52 277 0.0 1.0 0.00 0.00 0.00 79 1009.1
20260504011550 53 274 0.0 1.0 0.00 0.00 0.00 79 1009.1
20260504010053 53 288 0.0 2.0 0.00 0.00 0.00 78 1009.2
20260504004551 53 275 0.0 2.0 0.00 0.00 0.00 77 1009.2
20260504003054 54 274 1.0 3.0 0.00 0.00 0.00 76 1009.4
20260504001555 55 307 0.0 7.0 0.00 0.00 0.00 75 1009.5
20260504000040 55 293 1.0 6.0 0.00 0.00 0.00 74 1009.5